sat.trackr.live / text

‹ back to catalog

STARLINK-32181

NORAD 60349 · 2024-136W

PAYLOAD ACTIVE UNKNOWN

§ Identity

Operator
Country
US
Launch date
2024-08-02
Launch site
AFETR
Launch vehicle
Mass (kg)
RCS (m²)

Purposes: comms

External: N2YO · Heavens-Above · Gunter

§ Orbital elements

Epoch: 2026-05-25T04:29:47.720832Z

Period
93.85 min
Inclination
53.1607°
Eccentricity
0.0001202
Mean motion
15.34392108 rev/d
Perigee alt
461.9 km
Apogee alt
463.5 km
Semi-major
6,840.9 km
B*
4.0338e-5
RAAN
79.1363°
Arg perigee
95.8165°
Mean anomaly
264.2975°
Rev number
10,139

§ Raw data

STARLINK-321811 60349U 24136W   26145.18735788  .00000987  00000+0  40338-4 0  99982 60349  53.1607  79.1363 0001202  95.8165 264.2975 15.34392108101399

JSON: /api/v1/satellites/60349 · /tle

For live sub-satellite position, see the globe view (requires WebGL).

§ Visibility from observer

Set your observer location to see the next 7 days of passes ≥ 10°. The values pass through the URL so the page stays shareable.

No JS? Fill the form by hand. The geolocation button needs JavaScript.